Hourly Weather Luczywno

Today, 20 June, Sunday

Time Temperature Precipitation Wind Pressure Humidity
00:00 +22°C° 0 mm 3 mps 752 mmHg 80%
01:00 +21°C° 0 mm 3 mps 752 mmHg 81%
02:00 +21°C° 0 mm 3 mps 752 mmHg 83%
03:00 +20°C° 0 mm 3 mps 752 mmHg 85%
04:00 +20°C° 0 mm 3 mps 752 mmHg 87%
05:00 +21°C° 0 mm 3 mps 752 mmHg 81%
06:00 +23°C° 0 mm 4 mps 752 mmHg 76%
07:00 +25°C° 0 mm 4 mps 752 mmHg 70%
08:00 +26°C° 0 mm 5 mps 752 mmHg 64%
09:00 +27°C° 0 mm 5 mps 752 mmHg 58%
10:00 +28°C° 0 mm 6 mps 752 mmHg 52%
11:00 +29°C° 0 mm 5 mps 751 mmHg 49%
12:00 +30°C° 0 mm 5 mps 751 mmHg 46%
13:00 +32°C° 0 mm 5 mps 751 mmHg 43%
14:00 +32°C° 0 mm 5 mps 751 mmHg 43%
15:00 +32°C° 0 mm 4 mps 751 mmHg 44%
16:00 +32°C° 0 mm 4 mps 750 mmHg 44%
17:00 +30°C° 0 mm 4 mps 750 mmHg 52%
18:00 +28°C° 0 mm 3 mps 750 mmHg 59%
19:00 +27°C° 0 mm 3 mps 749 mmHg 67%
20:00 +25°C° 0 mm 3 mps 749 mmHg 69%
21:00 +24°C° 0 mm 3 mps 750 mmHg 72%
22:00 +22°C° 0 mm 4 mps 750 mmHg 75%
23:00 +21°C° 0 mm 4 mps 749 mmHg 77%

Tomorrow, 21 June, Monday

Time Temperature Precipitation Wind Pressure Humidity
00:00 +21°C° 0 mm 4 mps 749 mmHg 79%
01:00 +20°C° 0 mm 4 mps 749 mmHg 81%
02:00 +20°C° 0 mm 3 mps 749 mmHg 84%
03:00 +20°C° 0 mm 3 mps 749 mmHg 86%
04:00 +20°C° 0 mm 3 mps 749 mmHg 89%
05:00 +21°C° 0 mm 4 mps 749 mmHg 83%
06:00 +23°C° 0 mm 5 mps 749 mmHg 77%
07:00 +25°C° 0 mm 5 mps 749 mmHg 71%
08:00 +26°C° 0 mm 5 mps 749 mmHg 67%
09:00 +28°C° 0 mm 5 mps 748 mmHg 62%
10:00 +29°C° 0 mm 6 mps 748 mmHg 57%
11:00 +30°C° 0 mm 5 mps 748 mmHg 54%
12:00 +32°C° 0 mm 5 mps 748 mmHg 51%
13:00 +33°C° 0 mm 4 mps 748 mmHg 48%
14:00 +33°C° 0 mm 4 mps 748 mmHg 48%
15:00 +33°C° 0 mm 4 mps 747 mmHg 48%
16:00 +33°C° 0 mm 4 mps 747 mmHg 49%
17:00 +30°C° 0 mm 4 mps 747 mmHg 56%
18:00 +28°C° 0 mm 3 mps 747 mmHg 63%
19:00 +27°C° 0 mm 3 mps 747 mmHg 70%
20:00 +25°C° 0.3 mm 3 mps 748 mmHg 77%
21:00 +22°C° 0.3 mm 3 mps 748 mmHg 83%
22:00 +20°C° 0.3 mm 3 mps 748 mmHg 90%
23:00 +20°C° 0.2 mm 3 mps 748 mmHg 90%

Day after tomorrow, 22 June, Tuesday

Time Temperature Precipitation Wind Pressure Humidity
00:00 +20°C° 0.2 mm 3 mps 748 mmHg 91%
01:00 +19°C° 0.2 mm 2 mps 748 mmHg 92%
02:00 +19°C° 0.2 mm 2 mps 748 mmHg 92%
03:00 +19°C° 0.2 mm 2 mps 748 mmHg 92%
04:00 +19°C° 0.2 mm 2 mps 748 mmHg 92%
05:00 +20°C° 0.1 mm 2 mps 749 mmHg 89%
06:00 +21°C° 0.1 mm 3 mps 749 mmHg 86%
07:00 +22°C° 0.1 mm 3 mps 749 mmHg 83%
08:00 +25°C° 0 mm 3 mps 750 mmHg 77%
09:00 +26°C° 0 mm 3 mps 750 mmHg 70%
10:00 +28°C° 0 mm 4 mps 750 mmHg 64%
11:00 +28°C° 0 mm 4 mps 750 mmHg 61%
12:00 +29°C° 0 mm 3 mps 750 mmHg 58%
13:00 +30°C° 0 mm 3 mps 750 mmHg 55%
14:00 +30°C° 0 mm 3 mps 750 mmHg 56%
15:00 +29°C° 0 mm 3 mps 750 mmHg 57%
16:00 +29°C° 0 mm 2 mps 750 mmHg 57%
17:00 +28°C° 0.1 mm 2 mps 750 mmHg 62%
18:00 +27°C° 0.1 mm 2 mps 750 mmHg 67%
19:00 +26°C° 0.1 mm 2 mps 750 mmHg 71%
20:00 +25°C° 0 mm 3 mps 750 mmHg 77%
21:00 +24°C° 0 mm 3 mps 751 mmHg 83%
22:00 +21°C° 0 mm 3 mps 751 mmHg 90%
23:00 +20°C° 0 mm 3 mps 751 mmHg 90%

23 June, Wednesday

Time Temperature Precipitation Wind Pressure Humidity
00:00 +19°C° 0 mm 3 mps 751 mmHg 91%
01:00 +19°C° 0 mm 4 mps 751 mmHg 91%
02:00 +18°C° 0 mm 4 mps 751 mmHg 92%
03:00 +18°C° 0 mm 3 mps 751 mmHg 92%
04:00 +17°C° 0 mm 3 mps 751 mmHg 93%
05:00 +19°C° 0.3 mm 3 mps 751 mmHg 90%
06:00 +20°C° 0.3 mm 3 mps 751 mmHg 88%
07:00 +23°C° 0.3 mm 2 mps 751 mmHg 85%
08:00 +24°C° 0.1 mm 2 mps 751 mmHg 80%
09:00 +26°C° 0.1 mm 2 mps 751 mmHg 75%
10:00 +27°C° 0.1 mm 2 mps 751 mmHg 70%
11:00 +29°C° 0 mm 2 mps 751 mmHg 65%
12:00 +30°C° 0 mm 3 mps 751 mmHg 61%
13:00 +31°C° 0 mm 3 mps 751 mmHg 56%
14:00 +30°C° 0.5 mm 4 mps 752 mmHg 61%
15:00 +29°C° 0.5 mm 5 mps 752 mmHg 65%
16:00 +27°C° 0.5 mm 6 mps 752 mmHg 70%
17:00 +26°C° 0 mm 6 mps 753 mmHg 72%
18:00 +24°C° 0 mm 6 mps 753 mmHg 75%
19:00 +22°C° 0 mm 5 mps 753 mmHg 78%
20:00 +21°C° 0 mm 5 mps 754 mmHg 81%
21:00 +19°C° 0 mm 4 mps 754 mmHg 84%
22:00 +17°C° 0 mm 4 mps 755 mmHg 87%
23:00 +15°C° 0 mm 4 mps 755 mmHg 90%

24 June, Thursday

Time Temperature Precipitation Wind Pressure Humidity
00:00 +16°C° 0 mm 3 mps 755 mmHg 92%
01:00 +14°C° 0 mm 3 mps 755 mmHg 94%
02:00 +13°C° 0 mm 3 mps 755 mmHg 95%
03:00 +13°C° 0 mm 3 mps 755 mmHg 95%
04:00 +13°C° 0 mm 3 mps 755 mmHg 96%
05:00 +15°C° 0 mm 2 mps 755 mmHg 89%
06:00 +17°C° 0 mm 2 mps 755 mmHg 83%
07:00 +18°C° 0 mm 2 mps 755 mmHg 77%
08:00 +20°C° 0 mm 2 mps 755 mmHg 73%
09:00 +21°C° 0 mm 2 mps 755 mmHg 69%
10:00 +23°C° 0 mm 2 mps 755 mmHg 66%
11:00 +23°C° 0.2 mm 2 mps 755 mmHg 69%
12:00 +23°C° 0.2 mm 2 mps 755 mmHg 71%
13:00 +23°C° 0.2 mm 2 mps 755 mmHg 74%
14:00 +23°C° 0 mm 2 mps 754 mmHg 73%
15:00 +23°C° 0 mm 2 mps 754 mmHg 72%
16:00 +22°C° 0 mm 3 mps 754 mmHg 71%
17:00 +21°C° 0 mm 3 mps 754 mmHg 75%
18:00 +21°C° 0 mm 3 mps 754 mmHg 79%
19:00 +20°C° 0 mm 3 mps 754 mmHg 83%
20:00 +19°C° 0 mm 3 mps 754 mmHg 84%
21:00 +19°C° 0 mm 3 mps 755 mmHg 84%
22:00 +18°C° 0 mm 2 mps 755 mmHg 85%
23:00 +18°C° 0 mm 3 mps 755 mmHg 86%

25 June, Friday

Time Temperature Precipitation Wind Pressure Humidity
00:00 +18°C° 0 mm 3 mps 754 mmHg 87%
01:00 +18°C° 0 mm 3 mps 754 mmHg 88%
02:00 +17°C° 0 mm 3 mps 754 mmHg 89%
03:00 +17°C° 0 mm 3 mps 754 mmHg 91%
04:00 +17°C° 0 mm 3 mps 754 mmHg 92%
05:00 +17°C° 0 mm 3 mps 754 mmHg 90%
06:00 +18°C° 0 mm 3 mps 755 mmHg 88%
07:00 +18°C° 0 mm 3 mps 755 mmHg 86%
08:00 +18°C° 0 mm 3 mps 755 mmHg 83%
09:00 +18°C° 0 mm 3 mps 755 mmHg 81%
10:00 +19°C° 0 mm 3 mps 755 mmHg 79%
11:00 +20°C° 0 mm 3 mps 755 mmHg 74%
12:00 +21°C° 0 mm 3 mps 755 mmHg 69%
13:00 +22°C° 0 mm 3 mps 755 mmHg 64%
14:00 +24°C° 0 mm 2 mps 754 mmHg 63%
15:00 +24°C° 0 mm 2 mps 754 mmHg 61%
16:00 +24°C° 0 mm 2 mps 754 mmHg 60%
17:00 +23°C° 0.1 mm 2 mps 754 mmHg 66%
18:00 +21°C° 0.1 mm 2 mps 754 mmHg 72%
19:00 +20°C° 0.1 mm 3 mps 754 mmHg 77%
20:00 +19°C° 0 mm 3 mps 754 mmHg 80%
21:00 +18°C° 0 mm 2 mps 754 mmHg 82%
22:00 +18°C° 0 mm 2 mps 754 mmHg 85%
23:00 +17°C° 0 mm 3 mps 754 mmHg 86%
Show more

We Need Your Consent

Meteoprog and our Service Providers may store and access personal data such as cookies, device identifiers or other similar technologies on your device and process such data to personalise content and ads, as well as provide social media features and to analyse the traffic.

  • Store and/or access information on your device

    Cookies, device identifiers or other information can be stored or accessed on your device for the purposes indicated above.

  • Personalised ads and content, ad and content measurement, audience insights, and products development

    Ads and content can be personalised based on a profile. More data can be added to better personalise ads and content. Ad and content performance can be measured. Insights about the audience who saw the ads and content can be derived. Such data can be used to develop or improve user’s experience, systems and software.

By clicking ‘I Agree’ you will allow the use of indicated cookies, device identifiers, web beacons or other similar technologies. Your settings can be changed in the browser on your device.

For certain purposes, legitimate interests may be relied on, rather than consent. You can read more about this in our Privacy and Cookie Policy.